SCD 1 1 22490U 93009B 26073.33592028 .00000499 00000+0 85363-4 0 9998 2 22490 24.9695 73.2039 0041796 213.7890 169.6949 14.46071065747371 TECHSAT 1B (GO-32) 1 25397U 98043D 26072.95472279 .00000111 00000+0 68054-4 0 9991 2 25397 99.0030 63.3318 0002163 112.8953 247.2453 14.24407471437773 SCD 2 1 25504U 98060A 26073.32422390 .00000449 00000+0 74537-4 0 9998 2 25504 24.9957 297.1641 0016716 200.0635 320.7613 14.45485600446587 DLR-TUBSAT 1 25757U 99029B 26072.94833053 .00000163 00000+0 51988-4 0 9991 2 25757 98.6667 65.3357 0013051 280.7911 79.1814 14.52399571419423 TERRA 1 25994U 99068A 26073.22791482 .00000494 00000+0 10978-3 0 9998 2 25994 97.9584 126.4891 0002969 141.3052 240.7834 14.61020069395741 MAROC-TUBSAT 1 27004U 01056D 26073.09246111 -.00000009 00000+0 42519-4 0 9991 2 27004 99.8016 248.1726 0020154 28.5783 92.5532 13.70258228213160 AQUA 1 27424U 02022A 26073.27851048 .00001164 00000+0 24199-3 0 9997 2 27424 98.4181 40.7272 0000600 98.3020 7.1472 14.61989175269405 IRS-P6 (RESOURCESAT-1) 1 28051U 03046A 26073.27982514 .00000122 00000+0 55074-4 0 9994 2 28051 98.2042 114.3903 0062887 267.0646 225.1538 14.36119938166909 SHIYAN-1 (SY-1) 1 28220U 04012A 26073.18052293 .00016716 00000+0 55672-3 0 9997 2 28220 97.8764 145.2426 0005484 7.7357 352.3967 15.31193392196548 AURA 1 28376U 04026A 26073.21666071 .00001143 00000+0 24201-3 0 9995 2 28376 98.3316 28.9490 0001078 88.3981 271.7343 14.61161012152348 IRS-P5 (CARTOSAT-1) 1 28649U 05017A 26073.04448678 .00001700 00000+0 17822-3 0 9991 2 28649 97.5410 100.3975 0002165 63.7238 296.4203 14.90782591129649 SINAH 1 1 28893U 05043D 26073.26532737 .00000533 00000+0 11081-3 0 9999 2 28893 98.2691 207.1137 0013908 209.3167 150.7256 14.64079279 86635 RESURS-DK 1 1 29228U 06021A 26072.70123366 .00004129 00000+0 24080-3 0 9999 2 29228 69.9324 226.6452 0001475 158.8768 201.2459 15.12776946 88136 ARIRANG-2 (KOMPSAT-2) 1 29268U 06031A 26073.34251451 .00000271 00000+0 59417-4 0 9999 2 29268 97.8308 262.3710 0014933 19.8289 101.3878 14.64592676 47595 LAPAN-TUBSAT 1 29709U 07001A 26073.30454674 .00000616 00000+0 77289-4 0 9995 2 29709 98.1341 70.4057 0013120 129.7054 230.5320 14.85839315 37061 HAIYANG-1B 1 31113U 07010A 26072.91283068 .00000140 00000+0 68802-4 0 9993 2 31113 98.3431 58.4864 0014474 121.0141 239.2467 14.31001014987006 COSMO-SKYMED 1 1 31598U 07023A 26073.27791373 .00004860 00000+0 43212-3 0 9997 2 31598 97.8882 264.3467 0001588 95.2068 264.9334 14.96577744 15599 TERRASAR-X 1 31698U 07026A 26072.55097706 .00001554 00000+0 77203-4 0 9995 2 31698 97.4467 81.6190 0001986 83.4832 276.6629 15.19143715 38706 WORLDVIEW-1 (WV-1) 1 32060U 07041A 26073.29680979 .00008856 00000+0 37161-3 0 9998 2 32060 97.3808 194.4102 0003203 52.7220 307.4309 15.23701603 28425 YAOGAN-3 1 32289U 07055A 26073.34160006 .00004326 00000+0 44986-3 0 9997 2 32289 97.8272 104.1341 0001595 81.4242 278.7156 14.90390313991734 COSMO-SKYMED 2 1 32376U 07059A 26073.24122937 .00000634 00000+0 86164-4 0 9991 2 32376 97.8868 258.2114 0001326 84.2921 275.8443 14.82149521987936 RADARSAT-2 1 32382U 07061A 26073.29724052 .00000328 00000+0 14409-3 0 9994 2 32382 98.5822 81.5737 0001233 83.0405 277.0918 14.29981078952395 CARTOSAT-2A 1 32783U 08021A 26073.27374838 .00000463 00000+0 69169-4 0 9991 2 32783 97.7771 125.1733 0013173 63.2733 296.9825 14.79109411964775 HUANJING 1A (HJ-1A) 1 33320U 08041A 26073.28854712 .00001565 00000+0 19475-3 0 9994 2 33320 97.6639 62.8416 0020728 89.5735 270.7855 14.83737973944335 HUANJING 1B (HJ-1B) 1 33321U 08041B 26073.28377994 .00001977 00000+0 24591-3 0 9999 2 33321 97.6488 66.2872 0037490 132.9931 227.4437 14.83119134944346 GEOEYE 1 1 33331U 08042A 26073.26344166 .00000583 00000+0 11820-3 0 9997 2 33331 98.1199 148.3917 0003681 15.4201 344.7114 14.64773587936257 THEOS 1 33396U 08049A 26073.27578190 .00000168 00000+0 98831-4 0 9999 2 33396 98.5695 133.5950 0001056 91.7001 268.4297 14.20118639904493 COSMO-SKYMED 3 1 33412U 08054A 26073.30334781 .00001865 00000+0 13124-3 0 9990 2 33412 97.8413 290.2714 0014688 224.8284 135.1757 15.06284961942656 YAOGAN-4 1 33446U 08061A 26073.30811754 .00001540 00000+0 19584-3 0 9991 2 33446 97.9250 7.5651 0015032 25.2680 334.9265 14.82994144931609 GOSAT (IBUKI) 1 33492U 09002A 26072.27441068 .00000290 00000+0 59599-4 0 9992 2 33492 98.0769 184.6184 0001121 83.0514 277.0818 14.67545339917399 DEIMOS-1 1 35681U 09041A 26073.29301787 .00001105 00000+0 17081-3 0 9998 2 35681 97.7266 234.6985 0002461 111.3155 248.8317 14.75125181892893 DUBAISAT-1 1 35682U 09041B 26073.32194134 .00001397 00000+0 21537-3 0 9993 2 35682 97.9881 207.7135 0010781 22.2800 337.8875 14.74921175891116 OCEANSAT-2 1 35931U 09051A 26073.26577608 .00000372 00000+0 27944-3 0 9995 2 35931 98.2282 69.6171 0017443 138.5970 221.6522 13.99641030866057 WORLDVIEW-2 (WV-2) 1 35946U 09055A 26073.24989768 .00000155 00000+0 65663-4 0 9997 2 35946 98.4686 148.0504 0005230 134.0408 226.1211 14.37912627862005 SMOS 1 36036U 09059A 26073.25786249 .00000345 00000+0 12400-3 0 9993 2 36036 98.4430 261.9699 0000952 85.6973 274.4324 14.39764163859792 YAOGAN-7 1 36110U 09069A 26073.23842044 .00000783 00000+0 11560-3 0 9993 2 36110 98.0202 319.6299 0024413 348.7909 11.2754 14.77901069875607 TANDEM-X 1 36605U 10030A 26072.55097515 .00001682 00000+0 83268-4 0 9995 2 36605 97.4475 81.6192 0001909 101.4604 258.6845 15.19145167872128 CARTOSAT-2B 1 36795U 10035A 26072.45042603 .00001378 00000+0 19487-3 0 9990 2 36795 97.9147 123.6633 0012141 136.3975 223.8198 14.78661700845703 YAOGAN-10 1 36834U 10038A 26073.34675802 .00002746 00000+0 32798-3 0 9999 2 36834 97.9080 97.4860 0001596 87.0865 283.3092 14.85035494843137 COSMO-SKYMED 4 1 37216U 10060A 26073.25388586 .00000219 00000+0 34063-4 0 9990 2 37216 97.8872 258.2236 0001479 85.7826 274.3557 14.82143594830507 RESOURCESAT-2 1 37387U 11015A 26072.58350378 -.00000278 00000+0 -10661-3 0 9997 2 37387 98.7710 140.6462 0006503 129.1127 231.0630 14.21492639772598 HAIYANG-2A 1 37781U 11043A 26073.28859667 -.00000031 00000+0 13176-4 0 9990 2 37781 99.3422 77.8183 0002124 256.3770 103.7144 13.78023477733601 RASAT 1 37791U 11044D 26073.31114725 .00000685 00000+0 12741-3 0 9995 2 37791 98.0550 166.1786 0021630 130.8851 321.2595 14.68064409779269 SRMSAT 1 37841U 11058D 26072.71752395 .00000480 00000+0 11671-3 0 9994 2 37841 19.9717 277.3263 0011737 233.3697 186.1200 14.11549464744317 PLEIADES 1A 1 38012U 11076F 26073.31431301 .00000233 00000+0 60006-4 0 9996 2 38012 98.2035 149.6691 0001693 86.5480 315.7617 14.58543926758163 ZIYUAN 1-02C (ZY 1-02C) 1 38038U 11079A 26073.32260889 .00000412 00000+0 14995-3 0 9993 2 38038 98.4164 142.5843 0005531 223.9451 225.0922 14.38128673745576 ARIRANG-3 (KOMPSAT-3) 1 38338U 12025B 26073.32189075 .00000676 00000+0 14380-3 0 9995 2 38338 98.1070 32.4807 0006589 59.2027 300.9822 14.62109822737487 EXACTVIEW-1 (ADS-1B) 1 38709U 12039C 26073.30829424 .00000186 00000+0 99316-4 0 9998 2 38709 98.9639 188.6213 0011889 86.2187 274.0351 14.24953395709194 SPOT 6 1 38755U 12047A 26073.25271818 .00000313 00000+0 77215-4 0 9996 2 38755 98.2211 141.6355 0001498 92.0641 268.0730 14.58545837719218 PLEIADES 1B 1 39019U 12068A 26073.27194113 .00000339 00000+0 82859-4 0 9995 2 39019 98.2006 149.6091 0001578 84.2028 275.9351 14.58531411707014 GOKTURK 2 1 39030U 12073A 26073.27508811 .00000647 00000+0 10222-3 0 9994 2 39030 97.6889 275.4277 0000926 66.2977 293.8330 14.75441588710511 LANDSAT 8 1 39084U 13008A 26073.26121158 .00000373 00000+0 92677-4 0 9997 2 39084 98.1909 144.9117 0001270 90.4091 269.7253 14.57115348684070 SARAL 1 39086U 13009A 26073.27986589 .00000144 00000+0 68687-4 0 9998 2 39086 98.5559 261.0388 0001734 167.9646 192.1580 14.32830285682010 GAOFEN-1 1 39150U 13018A 26073.32399394 .00000819 00000+0 12448-3 0 9990 2 39150 97.9167 147.2911 0016638 208.5573 151.4727 14.76555589694245 VNREDSAT 1 1 39160U 13021B 26073.28077641 .00000742 00000+0 14739-3 0 9998 2 39160 97.9208 130.2831 0001556 84.2469 275.8912 14.64897905686393 ARIRANG-5 (KOMPSAT-5) 1 39227U 13042A 26073.25869558 .00001534 00000+0 11398-3 0 9996 2 39227 97.6216 261.2781 0004637 102.0717 258.1028 15.04485414689589 SKYSAT-A 1 39418U 13066C 26073.13461280 .00003691 00000+0 21535-3 0 9991 2 39418 97.3949 125.5402 0019970 283.9751 75.9259 15.12390031674119 DUBAISAT-2 1 39419U 13066D 26073.23122326 .00005879 00000+0 37099-3 0 9990 2 39419 97.4542 65.9363 0011675 10.3902 349.7567 15.09414863672069 GPM-CORE 1 39574U 14009C 26073.30674648 .00009131 00000+0 19861-3 0 9999 2 39574 64.9721 266.0206 0012387 267.2848 92.6875 15.44799292683151 SENTINEL-1A 1 39634U 14016A 26073.32751874 .00000356 00000+0 85241-4 0 9999 2 39634 98.1824 82.2321 0001366 83.5163 276.6192 14.59200369636185 KAZEOSAT 1 1 39731U 14024A 26073.24098619 .00000116 00000+0 48263-4 0 9995 2 39731 98.3274 148.0253 0001014 87.1500 272.9806 14.42037938624870 ALOS-2 1 39766U 14029A 26073.25008834 .00002099 00000+0 28754-3 0 9993 2 39766 97.9189 171.7812 0001502 95.9172 264.2211 14.79524808637545 KAZEOSAT 2 1 40010U 14033A 26073.31555922 .00000762 00000+0 94369-4 0 9995 2 40010 97.5488 277.8980 0007133 274.5276 85.5125 14.85344529634875 HODOYOSHI-4 1 40011U 14033B 26073.28497196 .00002247 00000+0 25032-3 0 9990 2 40011 97.5458 262.6942 0022206 259.9272 99.9440 14.87863772634691 DEIMOS-2 1 40013U 14033D 26073.25187620 .00000816 00000+0 82892-4 0 9995 2 40013 97.5970 311.0171 0000692 57.5437 302.5850 14.93424499623552 HODOYOSHI-3 1 40015U 14033F 26072.99262237 .00001470 00000+0 17634-3 0 9993 2 40015 97.6309 239.9283 0031841 309.6353 50.2053 14.85152239633498 SPOT 7 1 40053U 14034A 26073.25296591 .00000422 00000+0 95591-4 0 9991 2 40053 98.0737 138.1534 0001438 99.0730 261.0633 14.60866892623278 SKYSAT-B 1 40072U 14037D 26072.76496068 .00002122 00000+0 23938-3 0 9995 2 40072 98.3728 26.3696 0004570 217.1835 142.9064 14.87745210631776 WORLDVIEW-3 (WV-3) 1 40115U 14048A 26073.29056225 .00001118 00000+0 13789-3 0 9998 2 40115 97.8627 149.4225 0000257 179.5559 180.5656 14.84846886627827 GAOFEN-2 1 40118U 14049A 26073.30786970 .00000207 00000+0 33745-4 0 9994 2 40118 98.0216 137.5699 0007394 170.1291 190.0068 14.80777650625198 YAOGAN-21 1 40143U 14053A 26073.25867134 .00009569 00000+0 38543-3 0 9993 2 40143 97.1616 117.6030 0009987 73.6225 286.6111 15.25008072640487 YAOGAN-22 1 40275U 14063A 26073.27391629 -.00000007 00000+0 10479-3 0 9990 2 40275 100.7549 223.0266 0006593 48.3325 311.8349 13.15527434547331 ASNARO 1 40298U 14070A 26073.26929880 .00011778 00000+0 55846-3 0 9991 2 40298 97.3510 151.9132 0006665 143.1382 217.0313 15.19420144629596 YAOGAN-24 1 40310U 14072A 26073.31989928 .00000366 00000+0 60416-4 0 9994 2 40310 98.1310 209.9435 0012630 202.7949 157.2701 14.76238941609721 CBERS 4 1 40336U 14079A 26073.31367326 .00000062 00000+0 36132-4 0 9992 2 40336 98.3475 133.1774 0000763 38.8304 321.2937 14.35516112590349 YAOGAN-26 1 40362U 14088A 26073.27632515 .00030289 00000+0 67659-3 0 9992 2 40362 97.0669 75.9681 0006472 54.7716 305.4137 15.43452922623044 SMAP 1 40376U 15003A 26073.24244242 .00000633 00000+0 13164-3 0 9990 2 40376 98.1311 81.6674 0001539 110.1045 250.0323 14.63345722593736 KOMPSAT-3A 1 40536U 15014A 26073.24598670 .00029182 00000+0 49767-3 0 9995 2 40536 97.6874 58.0374 0063879 161.0947 199.2696 15.48975715607095 SENTINEL-2A 1 40697U 15028A 26073.24971199 .00000435 00000+0 18244-3 0 9995 2 40697 98.5646 149.4759 0001225 99.0002 261.1320 14.30816012560153 GAOFEN-8 1 40701U 15030A 26073.28867478 .00017260 00000+0 39784-3 0 9998 2 40701 97.6942 261.1856 0009710 171.1082 189.0338 15.42613508596802 CARBONITE 1 (CBNT-1) 1 40718U 15032D 26073.27638613 .00001246 00000+0 15848-3 0 9996 2 40718 97.6473 255.3485 0013253 243.9104 116.0747 14.83241901575272 YAOGAN-27 1 40878U 15040A 26073.30654606 .00000142 00000+0 48407-3 0 9997 2 40878 100.1114 63.8302 0008917 74.1629 286.0467 13.16067079505185 GAOFEN-9 01 1 40894U 15047A 26073.31822269 .00001221 00000+0 15654-3 0 9992 2 40894 97.6406 113.2770 0028970 91.4734 268.9799 14.82694138566131 YAOGAN-28 1 41026U 15064A 26073.29100204 .00008955 00000+0 34939-3 0 9992 2 41026 97.2902 213.6611 0011526 160.7796 199.3880 15.26087495576200 YAOGAN-29 1 41038U 15069A 26073.31510222 .00001118 00000+0 14420-3 0 9995 2 41038 98.0146 101.7575 0001646 30.2033 329.9275 14.83003663556568 KENT RIDGE 1 1 41167U 15077B 26073.12466137 .00005232 00000+0 18711-3 0 9999 2 41167 14.9791 252.6360 0008546 338.8859 21.1110 15.22493180566584 GAOFEN-4 1 41194U 15083A 26072.51971139 -.00000334 00000+0 00000+0 0 9998 2 41194 0.4018 83.7567 0003926 77.9435 302.2136 1.00269807 37577 JASON-3 1 41240U 16002A 26073.24535875 -.00000002 00000+0 23946-3 0 9996 2 41240 66.0438 325.4445 0007727 277.1253 82.8887 12.87626483475023 SENTINEL-3A 1 41335U 16011A 26073.26064507 .00000125 00000+0 69817-4 0 9995 2 41335 98.6220 141.9804 0001252 96.4538 263.6785 14.26735792524528 ZIYUAN 3-02 (ZY 3-02) 1 41556U 16033A 26073.27777834 .00008099 00000+0 36102-3 0 9997 2 41556 97.3895 150.8507 0010909 280.4994 79.5013 15.21627907543552 CARTOSAT-2C 1 41599U 16040A 26073.28200602 .00003078 00000+0 14901-3 0 9992 2 41599 97.4605 134.5102 0010594 107.1219 253.1177 15.19271319539302 SKYSAT-C1 1 41601U 16040C 26073.06978689 .00010751 00000+0 32263-3 0 9996 2 41601 96.9701 109.9969 0003210 44.2832 315.8668 15.34610638543273 LAPAN-A3 1 41603U 16040E 26073.26942941 .00004312 00000+0 13990-3 0 9994 2 41603 97.1484 72.5875 0010456 7.3088 352.8305 15.32430313540274 GAOFEN-3 1 41727U 16049A 26073.24443520 .00000191 00000+0 71203-4 0 9990 2 41727 98.4058 82.4506 0001714 86.6808 273.4578 14.42217757504961 SKYSAT-C4 1 41771U 16058B 26073.31728804 .00019978 00000+0 41708-3 0 9997 2 41771 96.9288 99.2138 0001249 131.0524 229.0835 15.45552423530809 SKYSAT-C5 1 41772U 16058C 26071.62992692 .00009296 00000+0 28166-3 0 9993 2 41772 97.0615 116.5685 0001665 86.9951 273.1483 15.34353290528940 SKYSAT-C2 1 41773U 16058D 26073.32240722 .00015005 00000+0 37966-3 0 9996 2 41773 97.0278 99.0891 0004702 58.2206 301.9498 15.39837532530445 SKYSAT-C3 1 41774U 16058E 26073.08181892 .00024890 00000+0 46828-3 0 9991 2 41774 96.9176 107.7679 0001725 112.4174 247.7261 15.48536410531370 ALSAT-1B 1 41785U 16059C 26073.22499589 .00000681 00000+0 11538-3 0 9997 2 41785 97.7807 86.0758 0009477 163.0260 197.1267 14.72194167506606 PATHFINDER 1 1 41787U 16059E 26072.95791561 .00000901 00000+0 16612-3 0 9996 2 41787 97.8179 76.5379 0029258 147.4744 212.8271 14.67527079505746 SCATSAT 1 1 41790U 16059H 26073.18587581 .00001682 00000+0 22804-3 0 9998 2 41790 98.1296 135.9470 0054689 192.9045 167.0770 14.79280019 87542 GOKTURK 1A 1 41875U 16073A 26073.30124846 .00000494 00000+0 10601-3 0 9995 2 41875 98.1355 329.4095 0001341 77.3279 282.8073 14.62754750494956 RESOURCESAT-2A 1 41877U 16074A 26073.26562355 .00000068 00000+0 51323-4 0 9998 2 41877 98.7594 147.5222 0002258 25.6243 334.5046 14.21602187480811 CARTOSAT-2D 1 41948U 17008A 26071.86645005 -.00000025 00000+0 20080-5 0 9994 2 41948 97.4226 132.9125 0004511 206.0706 154.0302 15.19280641502956 SENTINEL-2B 1 42063U 17013A 26073.24244253 .00000142 00000+0 70744-4 0 9993 2 42063 98.5647 149.3701 0001144 96.4814 263.6500 14.30822003471066 CARTOSAT-2E 1 42767U 17036C 26073.06902649 -.00000272 00000+0 -97461-5 0 9991 2 42767 97.4397 134.3841 0002580 284.3598 75.7351 15.19224887483702 FORMOSAT-5 1 42920U 17049A 26073.29339205 .00000211 00000+0 64662-4 0 9990 2 42920 98.2305 150.7016 0011429 23.0785 337.0921 14.50824227452919 SENTINEL-5P 1 42969U 17064A 26073.25666120 .00000083 00000+0 60354-4 0 9996 2 42969 98.7887 16.0805 0001055 91.4102 268.7195 14.19500474436092 SKYSAT-C11 1 42987U 17068A 26073.29278465 .00038665 00000+0 62552-3 0 9993 2 42987 97.4206 218.4309 0000445 77.9089 282.2214 15.52735140468495 SKYSAT-C10 1 42988U 17068B 26073.30174538 .00013494 00000+0 42814-3 0 9994 2 42988 97.4338 209.4353 0001009 94.4308 265.7050 15.32803097467810 SKYSAT-C9 1 42989U 17068C 26072.35427090 .00015438 00000+0 40079-3 0 9994 2 42989 97.4262 208.5510 0009866 120.4629 239.7592 15.39018182468001 SKYSAT-C8 1 42990U 17068D 26073.27985237 .00014690 00000+0 43599-3 0 9999 2 42990 97.4355 208.8678 0001226 95.0764 265.0619 15.34905497467744 SKYSAT-C7 1 42991U 17068E 26072.94411031 .00014329 00000+0 42582-3 0 9999 2 42991 97.4366 209.5123 0007304 90.9557 269.2523 15.34845880467757 SKYSAT-C6 1 42992U 17068F 26072.94662237 .00012708 00000+0 40575-3 0 9995 2 42992 97.4400 209.7875 0003737 117.9663 242.1957 15.32609953467722 CARTOSAT-2F 1 43111U 18004A 26073.29853752 .00004358 00000+0 20958-3 0 9998 2 43111 97.4158 134.3757 0001406 188.0165 172.1047 15.19313017452921 GAOFEN-1 02 1 43259U 18031A 26072.67387638 .00000581 00000+0 90900-4 0 9996 2 43259 98.0637 135.4203 0002195 336.3176 23.7932 14.76449151428600 GAOFEN-1 03 1 43260U 18031B 26073.26191961 .00000948 00000+0 14382-3 0 9992 2 43260 98.0626 135.8759 0003213 39.1510 320.9931 14.76428657428689 GAOFEN-1 04 1 43262U 18031D 26073.30544829 .00000554 00000+0 87037-4 0 9995 2 43262 98.0639 136.0989 0001837 74.8605 285.2807 14.76445721428680 SENTINEL-3B 1 43437U 18039A 26073.16365254 .00000136 00000+0 74173-4 0 9997 2 43437 98.6219 142.0322 0001105 127.1147 233.0135 14.26738170410575 GAOFEN-5 01 1 43461U 18043A 26072.90577289 .00000517 00000+0 11657-3 0 9993 2 43461 98.4472 42.5474 0002455 43.9815 316.1580 14.60528601417780 GAOFEN-6 1 43484U 18048A 26073.26854388 .00000707 00000+0 10817-3 0 9999 2 43484 97.7865 139.3876 0013408 121.0863 239.1665 14.76604531419385 GAOFEN-11 01 1 43585U 18063A 26073.31611082 .00023141 00000+0 37969-3 0 9990 2 43585 97.1402 140.6109 0003086 347.5049 12.6127 15.52433719425617 ICESAT-2 1 43613U 18070A 26073.27587230 .00003767 00000+0 13685-3 0 9993 2 43613 91.9992 265.4027 0003972 111.0159 249.1515 15.28245509417968 HYSIS 1 43719U 18096A 26073.27009459 .00001168 00000+0 16648-3 0 9995 2 43719 97.9933 140.7234 0001815 96.0245 264.1173 14.78670504393391 KAZSTSAT 1 43783U 18099AB 26073.08953482 .00001331 00000+0 11262-3 0 9991 2 43783 97.4387 109.2847 0005925 357.2442 2.8748 14.99633852397057 SAUDISAT 5A 1 43831U 18102A 26073.31118288 .00007519 00000+0 28588-3 0 9996 2 43831 97.3184 136.7395 0011513 108.6272 251.6219 15.27004003401197 SAUDISAT 5B 1 43833U 18102C 26073.28203741 .00006870 00000+0 25901-3 0 9998 2 43833 97.3281 139.6110 0012201 110.7021 249.5527 15.27309317401302 GAOFEN-10R 1 44622U 19066A 26073.28612078 .00001785 00000+0 22534-3 0 9991 2 44622 98.0403 26.2404 0008276 93.8837 266.3323 14.83172154348313 CARTOSAT-3 1 44804U 19081A 26073.24772359 .00004286 00000+0 20635-3 0 9994 2 44804 97.4416 136.5895 0013252 123.3439 236.9067 15.19220407349053 GAOFEN-12 01 1 44819U 19082A 26073.25125807 .00000575 00000+0 82037-4 0 9994 2 44819 97.8139 82.1294 0001571 53.8169 306.3189 14.80371533340043 CSG-1 1 44873U 19092A 26073.26655661 .00000666 00000+0 90152-4 0 9990 2 44873 97.8870 258.2383 0001383 85.5936 274.5436 14.82155635337418 NEMO-HD 1 46277U 20061F 26073.29052608 .00012599 00000+0 29134-3 0 9992 2 46277 97.2040 136.2852 0002187 73.4978 286.6510 15.42619297307344 SENTINEL-6A 1 46984U 20086A 26073.06710538 -.00000048 00000+0 56323-4 0 9990 2 46984 66.0441 332.6213 0007700 270.9215 89.0918 12.80929840248141 GAOFEN-12 02 1 48079U 21026A 26073.25223101 .00000582 00000+0 83555-4 0 9997 2 48079 97.9920 71.8332 0004955 165.5583 194.5772 14.80209631267718 PLEIADES NEO 3 1 48268U 21034A 26073.30250047 .00000332 00000+0 48817-4 0 9996 2 48268 97.8931 149.4312 0001301 95.0861 265.0501 14.81673573263606 PLEIADES NEO 4 1 49070U 21073E 26073.26872258 -.00000551 00000+0 -63418-4 0 9999 2 49070 97.8930 149.3936 0001323 93.2718 266.8646 14.81671481247318 LANDSAT 9 1 49260U 21088A 26073.15833861 .00000457 00000+0 11145-3 0 9993 2 49260 98.1931 144.8725 0001087 94.8604 265.2719 14.57130229237167 CSG-2 1 51444U 22008A 26073.30029039 -.00000022 00000+0 37499-5 0 9995 2 51444 97.8872 258.2685 0001410 80.4148 279.7225 14.82145237222533 GAOFEN-12 03 1 52912U 22069A 26073.26257345 .00001450 00000+0 19900-3 0 9991 2 52912 97.8401 323.4735 0002371 86.3307 273.8176 14.79864943200570 SWOT 1 54754U 22173A 26073.31139451 .00000007 00000+0 66849-5 0 9999 2 54754 77.6118 163.3840 0000594 249.3725 110.7363 14.00170313165870 GAOFEN-12 04 1 57654U 23123A 26073.29068696 .00001467 00000+0 20066-3 0 9996 2 57654 97.9129 352.6850 0001608 74.1808 285.9581 14.80018556138590 PARS 1 1 59065U 24039Q 26073.28316615 .00015918 00000+0 35519-3 0 9992 2 59065 97.4755 51.4050 0012146 97.0635 263.1995 15.43566535113994 RESURS-P 4 1 59371U 24061A 26073.31505091 .00004586 00000+0 14641-3 0 9991 2 59371 97.2655 22.8909 0002135 55.4849 304.6595 15.32971618109237 LEGION 1 1 59625U 24081A 26073.28675478 .00005387 00000+0 28053-3 0 9990 2 59625 97.5069 152.1406 0009709 358.2720 1.8477 15.16393572103155 LEGION 2 1 59626U 24081B 26073.26071999 .00004759 00000+0 24670-3 0 9990 2 59626 97.5068 152.1895 0009853 328.2964 31.7675 15.16614025103155 ALOS-4 (DAICHI-4) 1 60182U 24123A 26073.26962530 .00002156 00000+0 29550-3 0 9997 2 60182 97.9192 171.8028 0001561 101.4660 258.6727 14.79475509 91844 LEGION 3 1 60452U 24146A 26073.28948838 .00005940 00000+0 31503-3 0 9994 2 60452 45.0004 179.2377 0013076 345.7396 14.3112 15.16207513 87628 LEGION 4 1 60453U 24146B 26073.02391657 .00006295 00000+0 33280-3 0 9996 2 60453 45.0023 272.5091 0009633 132.4355 227.7340 15.16260694 86430 SENTINEL-2C 1 60989U 24157A 26073.20753655 .00000140 00000+0 70223-4 0 9994 2 60989 98.5681 149.3551 0000835 108.6779 251.4495 14.30816150 79402 IONOSFERA-M 1 1 61735U 24199A 26073.25320047 .00000042 00000+0 38393-4 0 9993 2 61735 98.7320 307.3573 0002045 69.9338 290.2060 14.22736081114201 IONOSFERA-M 2 1 61736U 24199B 26073.28769270 .00000061 00000+0 46954-4 0 9995 2 61736 98.7318 307.3029 0000482 133.7267 226.3951 14.22738757117337 BIOMASS 1 63772U 25090A 26073.25736255 .00000413 00000+0 81320-4 0 9999 2 63772 98.0746 261.9403 0001287 85.8610 274.2742 14.67537604 46766 GOSAT-GW (IBUKI GW) 1 64694U 25141A 26065.03170321 .00001373 00000+0 25032-3 0 9996 2 64694 98.0504 4.0681 0001432 83.7436 276.3932 14.67569112 36718 IONOSFERA-M 3 1 64876U 25155A 26073.29083052 .00000088 00000+0 59950-4 0 9993 2 64876 98.5929 37.6365 0002248 110.9818 249.1600 14.21467816 32927 IONOSFERA-M 4 1 64877U 25155B 26073.32580398 .00000073 00000+0 52746-4 0 9993 2 64877 98.5926 37.5889 0001768 98.6086 261.5293 14.21469550 32923 MICROCARB 1 64899U 25156A 26073.20513265 .00000739 00000+0 12484-3 0 9997 2 64899 97.9881 152.0287 0015746 211.7710 148.2548 14.72210450 33999 CO3D 3 1 64900U 25156B 26073.27117628 .00006573 00000+0 30642-3 0 9998 2 64900 97.4330 153.3269 0001691 128.9130 231.2256 15.20210247 35112 CO3D 4 1 64901U 25156C 26073.27132719 .00005975 00000+0 27885-3 0 9997 2 64901 97.4330 153.3270 0000556 199.4753 160.6461 15.20211777 35110 CO3D 2 1 64902U 25156D 26073.30381117 .00004579 00000+0 21453-3 0 9994 2 64902 97.4330 153.2578 0001420 108.6298 251.5091 15.20198877 35112 CO3D 1 1 64903U 25156E 26073.30396264 .00006453 00000+0 30093-3 0 9997 2 64903 97.4331 153.2581 0001369 118.8676 241.2697 15.20206065 35110 SENTINEL-6B 1 66514U 25264A 26073.06744338 -.00000048 00000+0 58424-4 0 9993 2 66514 66.0446 332.7473 0007814 270.3681 89.6439 12.80929921 14980 CSG-3 1 67304U 26001A 26073.27922454 .00000512 00000+0 70891-4 0 9998 2 67304 97.8870 258.2505 0001416 86.8551 273.2824 14.82154515 10402